Location: ????
(30.1475°N, 31.1342°E)
Time: 02:11:14
(UTC+00:00)

Cosmos 1420 Rocket - Pass Details

Date: 27 September 2022
Orbit: 754 x 780 km, 74.0° (Epoch: 01 December)

Event Time Altitude Azimuth Distance (km) Brightness Sun altitude
Exits shadow 01:44:12 36° 165° (SSE) 1,194 4.9 -27.0°
Maximum altitude 01:46:08 59° 103° (ESE) 879 4.4 -26.6°
Drops below altitude 10° 01:51:15 10° 25° (NNE) 2,297 6.9 -25.5°
Sets 01:53:39 0° 21° (NNE) 3,222 7.7 -25.0°
